Location: Zlin
(49.2333°N, 17.6667°E)
Time: 05:37:54
(UTC+02:00)

ISS - Visible Passes

Search period start: 23 September 2017 00:00
Search period end: 03 October 2017 00:00
Orbit: 401 x 407 km, 51.6° (Epoch: 23 September)

Date Brightness Start Highest point End Pass type
(mag) Time Alt. Az. Time Alt. Az. Time Alt. Az.
25 Sep -1.6 19:46:00 10° SSE 19:46:46 11° SE 19:46:46 11° SE visible
26 Sep -2.4 20:27:53 10° SW 20:29:49 27° S 20:29:49 27° S visible
27 Sep -2.4 19:36:04 10° SSW 19:38:41 23° SE 19:39:58 18° ESE visible
27 Sep -1.3 21:11:35 10° WSW 21:12:38 19° WSW 21:12:38 19° WSW visible
28 Sep -3.9 20:19:15 10° WSW 20:22:30 65° SSE 20:22:37 64° SE visible
29 Sep -3.3 19:27:04 10° SW 19:30:10 41° SSE 19:32:28 16° E visible
29 Sep -1.9 21:03:19 10° W 21:05:07 29° W 21:05:07 29° W visible
30 Sep -3.9 20:10:51 10° WSW 20:14:09 80° NNW 20:14:51 51° ENE visible
01 Oct -3.8 19:18:27 10° WSW 19:21:43 74° SSE 19:24:31 13° ENE visible
01 Oct -2.1 20:55:04 10° W 20:57:10 33° WNW 20:57:10 33° WNW visible
02 Oct -3.5 20:02:33 10° W 20:05:47 60° N 20:06:45 39° NE visible
02 Oct -0.3 21:39:14 10° WNW 21:39:24 11° WNW 21:39:24 11° WNW visible
